GW0234 Weather Reports


Display with metric or nautical units.
time (UTC)temp
F
wind
direction
speed
MPH
gust
MPH
rain 1hr
in
rain 24hr
in
rain mn
in
humidity
%
barometer
mb
20260906220120 76 196 0.0 2.0 0.00 0.00 0.00 64 1016.0
20260906214611 77 82 0.0 3.0 0.00 0.00 0.00 62 1016.1
20260906213103 78 178 1.0 3.0 0.00 0.00 0.00 60 1016.0
20260906211607 77 0 0.0 7.0 0.00 0.00 0.00 59 1015.8
20260906210117 77 170 0.0 4.0 0.00 0.00 0.00 61 1015.8
20260906204622 78 149 0.0 2.0 0.00 0.00 0.00 60 1015.8
20260906203105 78 0 0.0 3.0 0.00 0.00 0.00 62 1015.7
20260906201609 77 197 1.0 7.0 0.00 0.00 0.00 62 1015.7
20260906200106 76 192 1.0 4.0 0.00 0.00 0.00 63 1015.8
20260906194603 74 0 0.0 3.0 0.00 0.00 0.00 66 1016.0
20260906193108 75 0 0.0 2.0 0.00 0.00 0.00 66 1016.2
20260906191611 76 235 1.0 4.0 0.00 0.00 0.00 63 1016.2
20260906190108 76 0 0.0 5.0 0.00 0.00 0.00 63 1016.3
20260906184603 76 0 0.0 4.0 0.00 0.00 0.00 64 1016.2
20260906183105 74 0 0.0 4.0 0.00 0.00 0.00 65 1016.2
20260906181604 75 0 0.0 5.0 0.00 0.00 0.00 63 1016.3
20260906180135 75 0 1.0 5.0 0.00 0.00 0.00 63 1016.3
20260906174606 74 5 1.0 6.0 0.00 0.00 0.00 62 1016.4
20260906173105 74 176 1.0 6.0 0.00 0.00 0.00 65 1016.5
20260906171606 74 148 1.0 3.0 0.00 0.00 0.00 67 1016.6
20260906170108 73 0 1.0 3.0 0.00 0.00 0.00 66 1016.8
20260906164605 72 149 1.0 3.0 0.00 0.00 0.00 70 1017.0
20260906163104 74 217 0.0 8.0 0.00 0.00 0.00 70 1017.0
20260906161605 75 214 1.0 5.0 0.00 0.00 0.00 69 1017.1
20260906160105 74 168 0.0 3.0 0.00 0.00 0.00 70 1017.1
20260906154606 73 0 0.0 5.0 0.00 0.00 0.00 74 1017.2
20260906153118 72 46 1.0 3.0 0.00 0.00 0.00 75 1017.1
20260906151608 71 165 2.0 6.0 0.00 0.00 0.00 73 1017.2
20260906150106 69 186 0.0 4.0 0.00 0.00 0.00 79 1017.1
20260906144606 69 208 1.0 6.0 0.00 0.00 0.00 80 1017.2
20260906143106 69 0 0.0 3.0 0.00 0.00 0.00 84 1017.0
20260906141607 68 196 1.0 5.0 0.00 0.00 0.00 84 1016.8
20260906140112 67 0 0.0 2.0 0.00 0.00 0.00 87 1016.7
20260906134615 66 155 0.0 3.0 0.00 0.00 0.00 89 1016.5
20260906133109 64 169 0.0 3.0 0.00 0.00 0.00 91 1016.6
20260906131606 62 143 0.0 2.0 0.00 0.00 0.00 92 1016.6
20260906130104 61 0 0.0 2.0 0.00 0.00 0.00 92 1016.5
20260906124603 60 0 0.0 3.0 0.00 0.00 0.00 93 1016.3
20260906123105 58 0 0.0 0.0 0.00 0.00 0.00 94 1016.3
20260906121607 56 0 0.0 0.0 0.00 0.00 0.00 93 1016.3
20260906120108 55 0 0.0 0.0 0.00 0.00 0.00 94 1016.1
20260906114612 54 0 0.0 0.0 0.00 0.00 0.00 92 1015.9
20260906113103 54 0 0.0 0.0 0.00 0.00 0.00 91 1015.7
20260906111608 54 0 0.0 0.0 0.00 0.00 0.00 91 1015.6
20260906110105 53 0 0.0 0.0 0.00 0.00 0.00 91 1015.6
20260906104602 54 0 0.0 0.0 0.00 0.00 0.00 91 1015.4
20260906103111 54 0 0.0 0.0 0.00 0.00 0.00 91 1015.4
20260906101603 54 0 0.0 0.0 0.00 0.00 0.00 91 1015.3
20260906100105 54 0 0.0 0.0 0.00 0.00 0.00 91 1015.1
20260906094608 54 0 0.0 0.0 0.00 0.00 0.00 91 1015.1
20260906093105 53 0 0.0 0.0 0.00 0.00 0.00 91 1015.0
20260906091606 53 0 0.0 0.0 0.00 0.00 0.00 91 1015.0
20260906090118 53 0 0.0 0.0 0.00 0.00 0.00 90 1015.0
20260906084612 54 0 0.0 0.0 0.00 0.00 0.00 91 1014.9
20260906083116 54 0 0.0 0.0 0.00 0.00 0.00 91 1014.7
20260906081606 54 0 0.0 0.0 0.00 0.00 0.00 91 1014.7
20260906080127 54 0 0.0 0.0 0.00 0.00 0.00 90 1014.5
20260906074609 55 0 0.0 0.0 0.00 0.00 0.00 91 1014.5
20260906073115 55 0 0.0 0.0 0.00 0.00 0.00 91 1014.3
20260906071603 55 0 0.0 0.0 0.00 0.00 0.00 91 1014.2
20260906070111 55 0 0.0 0.0 0.00 0.00 0.00 90 1014.1
20260906064610 55 0 0.0 0.0 0.00 0.00 0.00 90 1014.0
20260906063103 55 0 0.0 0.0 0.00 0.00 0.00 90 1014.0
20260906061606 55 0 0.0 0.0 0.00 0.00 0.00 90 1013.9
20260906060106 55 0 0.0 0.0 0.00 0.00 0.00 90 1013.9
20260906054606 55 0 0.0 0.0 0.00 0.00 0.00 89 1013.9
20260906053105 55 0 0.0 0.0 0.00 0.00 0.00 89 1014.0
20260906051607 55 0 0.0 0.0 0.00 0.00 0.00 89 1013.9
20260906050110 56 0 0.0 0.0 0.00 0.00 0.00 89 1014.0
20260906044606 56 0 0.0 0.0 0.00 0.00 0.00 89 1014.1
20260906043104 56 0 0.0 0.0 0.00 0.00 0.00 89 1014.1
20260906041606 56 0 0.0 0.0 0.00 0.00 0.00 88 1014.3
20260906040107 56 0 0.0 0.0 0.00 0.00 0.00 88 1014.1
20260906034640 57 0 0.0 1.0 0.00 0.00 0.00 88 1014.0
20260906033110 57 0 0.0 2.0 0.00 0.00 0.00 87 1014.1
20260906031605 58 0 0.0 1.0 0.00 0.00 0.00 88 1014.0
20260906024609 59 0 0.0 1.0 0.00 0.00 0.00 88 1013.9
20260906023105 60 0 0.0 1.0 0.00 0.00 0.00 88 1014.0
20260906021612 60 0 0.0 1.0 0.00 0.00 0.00 87 1014.0
20260906020108 61 0 0.0 1.0 0.00 0.00 0.00 86 1013.9
20260906014604 61 0 0.0 0.0 0.00 0.00 0.00 87 1013.9
20260906013108 62 0 0.0 0.0 0.00 0.00 0.00 86 1013.7
20260906011603 62 0 0.0 0.0 0.00 0.00 0.00 86 1013.6
20260906010103 63 0 0.0 1.0 0.00 0.00 0.00 85 1013.6
20260906004605 64 0 0.0 0.0 0.00 0.00 0.00 83 1013.3
20260906003104 65 0 0.0 1.0 0.00 0.00 0.00 83 1013.1
20260906001603 66 0 0.0 0.0 0.00 0.00 0.00 80 1013.1
20260906000112 67 0 0.0 1.0 0.00 0.00 0.00 80 1013.0
20260905234621 68 0 0.0 1.0 0.00 0.00 0.00 79 1012.8
20260905233104 69 0 0.0 1.0 0.00 0.00 0.00 78 1012.9
20260905231608 70 0 0.0 1.0 0.00 0.00 0.00 77 1012.8
20260905230109 71 0 0.0 1.0 0.00 0.00 0.00 76 1012.6
20260905224619 73 163 0.0 2.0 0.00 0.00 0.00 73 1012.7
20260905223107 74 198 0.0 3.0 0.00 0.00 0.00 69 1012.5
20260905221605 76 213 1.0 5.0 0.00 0.00 0.00 69 1012.3